Weather in Konin

Poland     52°13′46″N   18°15′07″E
temp.,
°C
wind,
m/s
gust,
m/s
humid.,
%
clouds,
%
prec.,
mm/h
press.,
hPa
HPBL,
m
17 may, mon
mon1723:00+9s22881 0.0 100422
02:00+9s33904 0.0 100448
05:00+8sse34920 0.0 100348
08:00+13s347883 0.2 1004327
11:00+17ssw2365100 0.3 1004894
14:00+17sw2261100 1.0 10041199
17:00+16wsw2373100 0.8 1004262
20:00+12ssw3493100 5.1 1005114
18 may, tue
tue1823:00+11nw1193100 2.5 100534
02:00+11sw1189100 3.6 100525
05:00+10w4896100 0.6 1006290
08:00+11w5993100 0.8 1007509
11:00+13w6783100 0.1 1008818
14:00+15w6773100 0.6 10081156
17:00+15wnw5772100 0.7 10081011
20:00+12wnw488788 1.9 1009208
19 may, wed
wed1923:00+9wnw3894100 0.0 1010152
02:00+8w499621 0.0 1011194
05:00+7w479829 0.4 1012169
08:00+10w578961 0.4 1013457
11:00+13w5580100 0.3 1013935
14:00+13w4577100 0.8 1013737
17:00+13w567561 0.2 1013803
20:00+11wnw488798 0.4 1013225
20 may, thu
thu2023:00+8nw4995100 0.0 1015225
02:00+7nw499074 0.0 1015208
05:00+5nw3689100 0.0 1016127
08:00+9nw587511 0.0 1017418
11:00+14nw576177 0.0 10171396
14:00+16nw6757100 0.2 10161941
17:00+15nw710695 1.1 10161526
20:00+11nnw611775 1.3 1017449
21 may, fri
fri2123:00+7wnw48900 0.0 1019168
02:00+5w310926 0.0 1019207
05:00+4w5129119 0.0 1019291
08:00+8w697831 0.0 10191057
11:00+12wnw7105810 0.0 10181561
14:00+13w5858100 0.1 10171906
17:00+14wsw356394 0.1 10161302
20:00+11ssw2277100 0.1 101523